Time,TemperatureF,DewpointF,PressureIn,WindDirection,WindDirectionDegrees,WindSpeedMPH,WindSpeedGustMPH,Humidity,HourlyPrecipIn,Conditions,Clouds,dailyrainin,SoftwareType,DateUTC
2013-07-11 00:02:00,75.4,74.5,29.97,SE,137,1.0,2.0,97,0.00,,,0.48,meteohub,2013-07-11 05:02:00,
2013-07-11 00:17:00,75.6,74.7,29.97,SE,137,0.0,1.0,97,0.00,,,0.00,meteohub,2013-07-11 05:17:00,
2013-07-11 00:32:00,75.7,74.8,29.97,SE,137,1.0,2.0,97,0.00,,,0.00,meteohub,2013-07-11 05:32:00,
2013-07-11 00:47:00,75.7,74.8,29.97,SE,137,1.0,2.0,97,0.00,,,0.00,meteohub,2013-07-11 05:47:00,
2013-07-11 01:17:00,82.0,78.8,29.98,SSW,212,7.0,10.0,90,0.00,,,0.00,meteohub,2013-07-11 06:17:00,
2013-07-11 01:32:00,82.2,77.9,29.99,SW,219,9.0,10.0,87,0.00,,,0.00,meteohub,2013-07-11 06:32:00,
2013-07-11 01:47:00,82.2,78.3,29.99,SW,227,5.0,10.0,88,0.00,,,0.00,meteohub,2013-07-11 06:47:00,
2013-07-11 02:02:00,82.0,78.1,29.99,SSW,210,5.0,8.0,88,0.00,,,0.00,meteohub,2013-07-11 07:02:00,
2013-07-11 02:17:00,82.0,78.1,29.99,SSW,200,3.0,7.0,88,0.00,,,0.00,meteohub,2013-07-11 07:17:00,
2013-07-11 02:32:00,81.9,77.9,29.99,SSW,211,6.0,7.0,88,0.00,,,0.00,meteohub,2013-07-11 07:32:00,
2013-07-11 02:47:00,82.0,78.4,29.99,SSW,208,4.0,7.0,89,0.00,,,0.00,meteohub,2013-07-11 07:47:00,
2013-07-11 03:02:00,82.2,78.3,29.98,SSW,210,4.0,10.0,88,0.00,,,0.00,meteohub,2013-07-11 08:02:00,
2013-07-11 03:17:00,82.4,78.4,29.98,SW,215,6.0,10.0,88,0.00,,,0.00,meteohub,2013-07-11 08:17:00,
2013-07-11 03:32:00,82.6,79.0,29.97,SW,221,7.0,9.0,89,0.00,,,0.00,meteohub,2013-07-11 08:32:00,
2013-07-11 03:47:00,82.6,78.6,29.97,SW,229,9.0,10.0,88,0.00,,,0.00,meteohub,2013-07-11 08:47:00,
2013-07-11 04:02:00,82.2,77.9,29.97,SW,232,8.0,10.0,87,0.00,,,0.00,meteohub,2013-07-11 09:02:00,
2013-07-11 04:17:00,82.4,78.4,29.96,SW,231,7.0,9.0,88,0.00,,,0.00,meteohub,2013-07-11 09:17:00,
2013-07-11 04:32:00,82.2,78.3,29.96,SW,236,7.0,11.0,88,0.00,,,0.00,meteohub,2013-07-11 09:32:00,
2013-07-11 04:47:00,82.0,78.1,29.96,West,261,8.0,10.0,88,0.00,,,0.00,meteohub,2013-07-11 09:47:00,
2013-07-11 05:02:00,82.0,78.1,29.95,West,266,10.0,11.0,88,0.00,,,0.00,meteohub,2013-07-11 10:02:00,
2013-07-11 05:17:00,81.9,77.9,29.95,West,261,7.0,10.0,88,0.00,,,0.00,meteohub,2013-07-11 10:17:00,
2013-07-11 05:32:00,81.7,78.4,29.95,West,271,6.0,9.0,90,0.00,,,0.00,meteohub,2013-07-11 10:32:00,
2013-07-11 05:47:00,81.3,77.7,29.96,West,275,3.0,8.0,89,0.00,,,0.00,meteohub,2013-07-11 10:47:00,
2013-07-11 06:02:00,81.3,77.4,29.95,West,278,4.0,6.0,88,0.00,,,0.00,meteohub,2013-07-11 11:02:00,
2013-07-11 06:17:00,81.1,77.5,29.95,West,281,4.0,5.0,89,0.00,,,0.00,meteohub,2013-07-11 11:17:00,
2013-07-11 06:32:00,81.1,77.2,29.96,West,261,3.0,5.0,88,0.00,,,0.00,meteohub,2013-07-11 11:32:00,
2013-07-11 06:47:00,81.0,77.0,29.96,WNW,282,3.0,6.0,88,0.00,,,0.00,meteohub,2013-07-11 11:47:00,
2013-07-11 07:02:00,81.0,77.4,29.96,West,271,5.0,6.0,89,0.00,,,0.00,meteohub,2013-07-11 12:02:00,
2013-07-11 07:17:00,81.0,77.4,29.96,WSW,254,5.0,7.0,89,0.00,,,0.00,meteohub,2013-07-11 12:17:00,
2013-07-11 07:32:00,80.6,77.0,29.97,WNW,283,6.0,9.0,89,0.00,,,0.00,meteohub,2013-07-11 12:32:00,
2013-07-11 07:47:00,80.2,76.6,29.98,WNW,285,4.0,7.0,89,0.00,,,0.00,meteohub,2013-07-11 12:47:00,
2013-07-11 08:02:00,80.2,76.6,29.98,WNW,299,3.0,6.0,89,0.00,,,0.00,meteohub,2013-07-11 13:02:00,
2013-07-11 08:17:00,80.1,76.8,29.98,SW,228,4.0,5.0,90,0.00,,,0.00,meteohub,2013-07-11 13:17:00,
2013-07-11 08:32:00,79.9,76.6,29.97,WSW,237,4.0,7.0,90,0.00,,,0.00,meteohub,2013-07-11 13:32:00,
2013-07-11 08:47:00,79.3,75.7,29.97,SW,217,9.0,9.0,89,0.00,,,0.00,meteohub,2013-07-11 13:47:00,
2013-07-11 09:02:00,78.3,74.7,29.97,South,181,3.0,12.0,89,0.01,,,0.01,meteohub,2013-07-11 14:02:00,
2013-07-11 09:17:00,76.8,73.9,29.96,SSE,165,0.0,8.0,91,0.01,,,0.01,meteohub,2013-07-11 14:17:00,
2013-07-11 09:32:00,75.7,73.6,29.96,WSW,241,2.0,12.0,93,0.40,,,0.40,meteohub,2013-07-11 14:32:00,
2013-07-11 09:47:00,74.8,73.0,29.96,SSE,160,4.0,17.0,94,1.26,,,1.27,meteohub,2013-07-11 14:47:00,
2013-07-11 10:02:00,73.2,71.8,29.98,SSW,198,5.0,18.0,95,2.26,,,2.27,meteohub,2013-07-11 15:02:00,
2013-07-11 10:17:00,72.7,71.2,29.96,South,185,4.0,13.0,95,2.75,,,2.76,meteohub,2013-07-11 15:17:00,
2013-07-11 10:32:00,73.8,72.5,29.96,SE,138,1.0,17.0,96,2.40,,,2.81,meteohub,2013-07-11 15:32:00,
2013-07-11 10:47:00,73.8,72.5,29.99,SSW,208,6.0,11.0,96,1.60,,,2.93,meteohub,2013-07-11 15:47:00,
2013-07-11 11:02:00,73.8,72.5,29.99,SW,218,7.0,15.0,96,1.04,,,3.21,meteohub,2013-07-11 16:02:00,
2013-07-11 11:17:00,73.6,72.3,30.00,SE,138,6.0,15.0,96,1.31,,,3.93,meteohub,2013-07-11 16:17:00,
2013-07-11 11:32:00,73.2,72.0,30.00,South,182,4.0,8.0,96,1.69,,,4.50,meteohub,2013-07-11 16:32:00,
2013-07-11 11:47:00,73.9,73.0,30.00,South,188,8.0,13.0,97,1.70,,,4.63,meteohub,2013-07-11 16:47:00,
2013-07-11 12:02:00,75.0,73.8,30.01,SW,216,14.0,18.0,96,1.27,,,4.64,meteohub,2013-07-11 17:02:00,
2013-07-11 12:17:00,74.7,72.9,30.00,SW,217,15.0,24.0,94,0.56,,,4.65,meteohub,2013-07-11 17:17:00,
2013-07-11 12:32:00,75.6,73.0,29.99,SW,217,12.0,25.0,92,0.09,,,4.65,meteohub,2013-07-11 17:32:00,
2013-07-11 12:47:00,76.3,74.1,30.01,South,188,5.0,21.0,93,0.02,,,4.65,meteohub,2013-07-11 17:47:00,
2013-07-11 13:02:00,75.9,73.8,30.01,SSW,206,10.0,13.0,93,0.02,,,4.66,meteohub,2013-07-11 18:02:00,
2013-07-11 13:17:00,75.7,73.2,30.01,WSW,254,8.0,10.0,92,0.05,,,4.70,meteohub,2013-07-11 18:17:00,
2013-07-11 13:32:00,75.0,72.9,30.00,SW,232,5.0,10.0,93,0.18,,,4.83,meteohub,2013-07-11 18:32:00,
2013-07-11 13:47:00,75.0,72.9,29.98,South,178,7.0,7.0,93,0.20,,,4.85,meteohub,2013-07-11 18:47:00,
2013-07-11 14:02:00,74.7,72.9,29.97,SSE,158,1.0,7.0,94,0.20,,,4.86,meteohub,2013-07-11 19:02:00,
2013-07-11 14:18:00,74.7,72.9,29.95,SSW,193,3.0,6.0,94,0.16,,,4.87,meteohub,2013-07-11 19:18:00,
2013-07-11 14:32:00,74.7,73.2,29.94,SSW,192,1.0,4.0,95,0.03,,,4.87,meteohub,2013-07-11 19:32:00,
2013-07-11 14:47:00,75.4,73.6,29.94,SSW,199,4.0,8.0,94,0.01,,,4.87,meteohub,2013-07-11 19:47:00,
2013-07-11 15:02:00,75.9,74.1,29.93,SSW,210,4.0,8.0,94,0.01,,,4.87,meteohub,2013-07-11 20:02:00,
2013-07-11 15:17:00,75.9,73.4,29.92,SW,234,4.0,9.0,92,0.00,,,4.87,meteohub,2013-07-11 20:17:00,
2013-07-11 15:32:00,76.1,73.6,29.92,WSW,237,2.0,7.0,92,0.00,,,4.87,meteohub,2013-07-11 20:32:00,
2013-07-11 15:47:00,76.5,73.9,29.92,NW,323,4.0,8.0,92,0.00,,,4.87,meteohub,2013-07-11 20:47:00,
2013-07-11 16:02:00,76.1,73.2,29.92,NW,319,5.0,7.0,91,0.00,,,4.87,meteohub,2013-07-11 21:02:00,
2013-07-11 16:17:00,76.3,73.4,29.91,NW,304,3.0,6.0,91,0.00,,,4.87,meteohub,2013-07-11 21:17:00,
2013-07-11 16:32:00,76.5,73.6,29.90,NW,314,1.0,5.0,91,0.00,,,4.87,meteohub,2013-07-11 21:32:00,
2013-07-11 16:47:00,76.8,73.9,29.90,NW,314,0.0,3.0,91,0.00,,,4.87,meteohub,2013-07-11 21:47:00,
2013-07-11 17:17:00,77.7,74.3,29.88,NW,314,0.0,2.0,89,0.00,,,4.87,meteohub,2013-07-11 22:17:00,
2013-07-11 17:32:00,78.1,74.5,29.89,NW,314,1.0,1.0,89,0.00,,,4.87,meteohub,2013-07-11 22:32:00,
2013-07-11 17:47:00,77.9,74.1,29.89,NW,314,0.0,1.0,88,0.00,,,4.87,meteohub,2013-07-11 22:47:00,
2013-07-11 18:02:00,77.7,74.5,29.89,NW,314,0.0,0.0,90,0.00,,,4.87,meteohub,2013-07-11 23:02:00,
2013-07-11 18:17:00,77.5,75.0,29.88,NW,314,0.0,0.0,92,0.00,,,4.87,meteohub,2013-07-11 23:17:00,
2013-07-11 18:32:00,77.4,75.2,29.88,NW,314,0.0,1.0,93,0.00,,,4.87,meteohub,2013-07-11 23:32:00,
2013-07-11 18:47:00,77.2,74.7,29.88,WNW,284,0.0,3.0,92,0.00,,,4.87,meteohub,2013-07-11 23:47:00,
2013-07-11 19:02:00,77.2,74.7,29.89,WNW,285,0.0,0.0,92,0.00,,,4.87,meteohub,2013-07-12 00:02:00,
2013-07-11 19:17:00,77.0,74.8,29.88,WNW,285,0.0,0.0,93,0.00,,,4.87,meteohub,2013-07-12 00:17:00,
2013-07-11 19:32:00,76.8,74.7,29.89,WNW,284,0.0,0.0,93,0.00,,,4.87,meteohub,2013-07-12 00:32:00,
2013-07-11 19:47:00,76.6,74.8,29.89,WNW,285,0.0,0.0,94,0.00,,,4.87,meteohub,2013-07-12 00:47:00,
2013-07-11 20:02:00,76.3,74.5,29.89,WNW,284,0.0,0.0,94,0.00,,,4.87,meteohub,2013-07-12 01:02:00,
2013-07-11 20:17:00,75.7,74.1,29.89,WNW,284,0.0,0.0,95,0.00,,,4.87,meteohub,2013-07-12 01:17:00,
2013-07-11 20:32:00,75.6,73.9,29.90,WNW,284,0.0,0.0,95,0.00,,,4.87,meteohub,2013-07-12 01:32:00,
2013-07-11 20:47:00,75.4,73.8,29.90,WNW,284,0.0,0.0,95,0.00,,,4.87,meteohub,2013-07-12 01:47:00,
2013-07-11 21:02:00,75.4,73.8,29.91,WNW,284,0.0,0.0,95,0.00,,,4.87,meteohub,2013-07-12 02:02:00,
2013-07-11 21:17:00,75.4,74.1,29.91,WNW,284,0.0,0.0,96,0.00,,,4.87,meteohub,2013-07-12 02:17:00,
2013-07-11 21:32:00,75.4,74.1,29.92,WNW,284,0.0,0.0,96,0.00,,,4.87,meteohub,2013-07-12 02:32:00,
2013-07-11 21:47:00,75.4,74.1,29.92,WNW,284,0.0,1.0,96,0.00,,,4.87,meteohub,2013-07-12 02:47:00,
2013-07-11 22:02:00,75.4,74.1,29.92,WNW,284,0.0,0.0,96,0.00,,,4.87,meteohub,2013-07-12 03:02:00,
2013-07-11 22:17:00,75.2,73.9,29.92,WNW,284,0.0,0.0,96,0.00,,,4.87,meteohub,2013-07-12 03:17:00,
2013-07-11 22:32:00,75.4,74.1,29.93,WNW,284,0.0,0.0,96,0.00,,,4.87,meteohub,2013-07-12 03:32:00,
2013-07-11 22:47:00,75.4,74.1,29.93,WNW,285,0.0,0.0,96,0.00,,,4.87,meteohub,2013-07-12 03:47:00,
2013-07-11 23:02:00,75.6,74.3,29.93,WNW,285,0.0,0.0,96,0.00,,,4.87,meteohub,2013-07-12 04:02:00,
2013-07-11 23:17:00,75.6,74.3,29.93,WNW,285,0.0,0.0,96,0.00,,,4.87,meteohub,2013-07-12 04:17:00,
2013-07-11 23:32:00,75.7,74.5,29.92,WNW,284,0.0,1.0,96,0.00,,,4.87,meteohub,2013-07-12 04:32:00,
2013-07-11 23:47:00,76.5,75.2,29.92,NW,311,3.0,4.0,96,0.00,,,4.87,meteohub,2013-07-12 04:47:00,